Regional Weather Roundup
Issued by NWS

Home | Current Version | Previous Version | Graphics & Text | Print | Product List | Glossary On
Versions: 1 2 3 4 5 6 7 8 9 10 11 12 13 14 15 16 17 18 19 20 21 22 23 24 25 26 27 28 29 30 31 32 33 34 35 36 37 38 39 40 41 42 43 44 45 46 47 48 49 50
816
ASUS43 KMPX 172110
RWRMN
WEATHER ROUNDUP FOR MINNESOTA
NATIONAL WEATHER SERVICE TWIN CITIES/CHANHASSEN MN
300 PM CST SAT FEB 17 2018


NOTE: "FAIR" INDICATES FEW OR NO CLOUDS BELOW 12,000 FEET WITH NO
SIGNIFICANT WEATHER AND/OR OBSTRUCTIONS TO VISIBILITY. N/A MEANS
CURRENT SKY AND/OR WEATHER CONDITIONS ARE NOT AVAILABLE.

MNZ060>063-068>070-172200-
   Twin Cities Metro

CITY           SKY/WX    TMP DP  RH WIND       PRES   REMARKS
BLAINE         PTSUNNY   37  19  48 W13G20    29.87R
LAKEVILLE      FAIR      34  25  69 W13       29.90R WCI  25
EDEN PRAIRIE   FAIR      36  17  46 NW13      29.88R
SOUTH ST PAUL  FAIR      36  21  55 W6G20     29.89R
LAKE ELMO      FAIR      34  21  60 W9        29.89R WCI  26
$$
MNZ001>005-007-008-013>017-022>024-027-028-172200-
   Northwest Minnesota

CITY           SKY/WX    TMP DP  RH WIND       PRES   REMARKS
BEMIDJI        FAIR      20   8  59 W20G25    29.86R WCI   5
HALLOCK        PTSUNNY   21   7  53 NW18G25   29.88S WCI   6
WARROAD        FAIR      19   3  49 W14G24    29.83R WCI   6
THIEF RVR FALL FAIR      20   7  57 NW16      29.92R WCI   6
CROOKSTON      FAIR      21   9  58 NW14      29.95R WCI   8
FOSSTON        FAIR      21   7  53 W18       29.91R WCI   6
DETROIT LAKES  FAIR      23   9  54 NW20      29.93R WCI   8
MOORHEAD       FAIR      25   9  50 NW22G28   29.98R WCI  10
PARK RAPIDS    FAIR      22   9  57 W20G26    29.87R WCI   7
MAHNOMEN       FAIR      21   9  59 NW18G26   29.91S WCI   6
$$
MNZ006-009>011-018-025>026-172200-
   North Central Minnesota

CITY           SKY/WX    TMP DP  RH WIND       PRES   REMARKS
BAUDETTE       FAIR      18   4  54 W15       29.80R WCI   4
FLAG ISLAND    FLURRIES  18   0  45 W16G29    29.78R WCI   3
INTL FALLS     FAIR      20   2  45 W17       29.78R WCI   5
WASKISH        PTSUNNY   19   9  63 W15G21    29.84R WCI   5
BIG FORK       FAIR      23   9  54 W13G20    29.80R WCI  11
LONGVILLE      PTSUNNY   25  12  58 W9G17     29.83S WCI  15
GRAND RAPIDS   CLOUDY    23  13  65 W10       29.83R WCI  12
COOK           CLOUDY    21  10  63 W15       29.77R WCI   8
WALKER         FAIR      22   6  49 W16G26    29.85R WCI   8
$$
MNZ012-019>021-037-172200-
   Northeast Minnesota

CITY           SKY/WX    TMP DP  RH WIND       PRES   REMARKS
DULUTH         FAIR      28  11  48 W20G28    29.76R WCI  15
ELY            CLOUDY    23   9  54 W15G21    29.73R WCI  10
HIBBING        PTSUNNY   22   9  57 W10G22    29.78S WCI  11
EVELETH        PTSUNNY  N/A N/A N/A W17G24    29.77S
DULUTH HARBOR  CLOUDY    32  18  55 W15G22    29.81R WCI  22
TWO HARBORS    PTSUNNY   34  16  47 W14G21    29.74S WCI  24
GRAND MARAIS     N/A     31  11  43 W10G20    29.73R WCI  22
G MARAIS ARPRT FAIR      21   3  45 W13G23    29.66R WCI   9
$$
MNZ029>031-032-039>041-046>048-054>057-064-172200-
   West Central Minnesota

CITY           SKY/WX    TMP DP  RH WIND       PRES   REMARKS
FERGUS FALLS   FAIR      25  10  54 NW23G30   29.95R WCI  10
MORRIS         SUNNY     34   9  35 NW22G28   29.94R WCI  22
ALEXANDRIA     FAIR      28  10  46 NW22G28   29.91R WCI  14
ELBOW LAKE     FAIR      27   9  46 NW22G29   29.95R WCI  13
WADENA         FAIR      21  10  63 NW15G21   29.91R WCI   8
GLENWOOD       FAIR      28  10  47 NW24G32   29.92R WCI  14
APPLETON       SUNNY     36   7  30 NW20G26   29.96R
BENSON         SUNNY     36   7  30 N24G30    29.96R
ORTONVILLE     SUNNY     32   9  37 NW18      29.97R WCI  20
MADISON        MOSUNNY   37  14  38 NW20G28   29.96R
WILLMAR        FAIR      34  10  37 NW24      29.96R WCI  21
$$
MNZ033>034-036-042>043-049>051-058-059-172200-
   Central Minnesota

CITY           SKY/WX    TMP DP  RH WIND       PRES   REMARKS
ST CLOUD       FAIR      32  12  43 NW22G30   29.88R WCI  19
SAUK CENTRE    FAIR      29  11  47 W21G31    29.91R WCI  16
PAYNESVILLE    FAIR      33  12  42 W17G29    29.92R WCI  22
AITKIN         PTSUNNY   25  10  54 W9G21     29.83R WCI  15
PINE RIVER     PTSUNNY   23  10  58 NW12G20   29.90R WCI  12
BRAINERD       PTSUNNY   28  12  51 W16G25    29.87R WCI  16
STAPLES        FAIR      21  10  63 W17G23    29.90R WCI   7
LONG PRAIRIE   FAIR      28  10  47 W20G28    29.89R WCI  15
LITTLE FALLS   FAIR      30   5  34 W22       29.89R WCI  17
LITCHFIELD     FAIR      36  16  44 W20G29    29.91R
BUFFALO        FAIR      35  15  44 W17G23    29.90R WCI  25
MAPLE LAKE     FAIR      35  18  48 W15       29.90R WCI  26
HUTCHINSON     FAIR      36  18  48 W20G25    29.92R
$$
MNZ037-044-045-052-053-172200-
   East Central Minnesota

CITY           SKY/WX    TMP DP  RH WIND       PRES   REMARKS
PRINCETON      FAIR      36  14  41 W13       29.87R
MORA           FAIR      32  14  47 NW17G23   29.86S WCI  21
CAMBRIDGE        N/A     36  19  51 W16       29.87R
RUSH CITY      FAIR      34  15  47 W12G18    29.86R WCI  25
MOOSE LAKE     FAIR      30  10  43 W14G22    29.80R WCI  20
HINCKLEY       FAIR      32  14  47 W12G22    29.84R WCI  23
CLOQUET        PTSUNNY   28   9  43 NW16G26   29.78S WCI  17
MCGREGOR       CLOUDY    30  14  51 NW14G20   29.81S WCI  20
$$
MNZ071>073-080-081-089-090-097-098-172200-
   Southwest Minnesota

CITY           SKY/WX    TMP DP  RH WIND       PRES   REMARKS
MONTEVIDEO     SUNNY     37  12  35 N17G25    29.96R
GRANITE FALLS  PTSUNNY   38  17  42 NW22      29.98R
CANBY          PTSUNNY   37  17  45 NW23      29.99R
MARSHALL       MOSUNNY   36  17  46 NW22G28   29.96R
OLIVIA         MOSUNNY   36  18  48 NW18G25   29.93R
PIPESTONE      MOSUNNY   32  21  64 NW16G23   29.97R WCI  21
WINDOM         SUNNY     34  16  47 W15       29.95R WCI  24
WORTHINGTON    SUNNY     34  24  67 W16       29.96S WCI  24
JACKSON        MOSUNNY   32  27  80 W16       29.96R WCI  21
TRACY          PTSUNNY   36  22  58 NW12G18   29.96R
SLAYTON        MOSUNNY   34  23  62 W17       29.96R WCI  24
$$
MNZ065>067-074>077-082>085-091>093-172200-
   South Central Minnesota

CITY           SKY/WX    TMP DP  RH WIND       PRES   REMARKS
MANKATO        FAIR      35  21  56 NW16G22   29.93R WCI  25
NEW ULM        MOSUNNY   34  19  55 NW18      29.93R WCI  23
ST JAMES       SUNNY     34  23  64 W14       29.97R WCI  24
FAIRMONT       SUNNY     34  26  72 NW18      29.96R WCI  23
GLENCOE        FAIR      36  20  53 W17G26    29.91R
FARIBAULT      FAIR      34  25  69 W9        29.92R WCI  26
OWATONNA       FAIR      32  25  74 W8        29.91R WCI  25
WASECA         FAIR      32  27  80 W10       29.93R WCI  24
ALBERT LEA     FAIR      30  23  74 W8G17     29.93R WCI  23
$$
MNZ078>079-086>088-094>096-172200-
   Southeast Minnesota

CITY           SKY/WX    TMP DP  RH WIND       PRES   REMARKS
ROCHESTER      PTSUNNY   27  23  85 W17       29.90R WCI  14
RED WING       CLOUDY    30  19  64 W12       29.90R WCI  21
STANTON        PTSUNNY   32  24  71 W6        29.91R WCI  27
DODGE CENTER   PTSUNNY   28  23  80 W12       29.91R WCI  18
WINONA         CLOUDY    30  23  74 W7        29.90R WCI  23
AUSTIN         PTSUNNY   28  23  80 W14       29.91R WCI  17
PRESTON        CLOUDY    27  22  84 W14       29.90R WCI  15
$$
ABBREVIATIONS USED IN REMARKS
   TC - TEMPERATURES IN CELSIUS
  WCI - WIND CHILL INDEX
   HX - HEAT INDEX
  VSB - VISIBILITY
$$




USA.gov is the U.S. government's official web portal to all federal, state and local government web resources and services.